Flag Weather past 2 weeks in Amberg, Bavaria, Germany

Now
28 °F

Clear.


Feels Like: 28 °F
Forecast: 29 / 40 °F
Wind: 2 mph from Northwest

Location: Hohenfels

Current Time: Nov 26, 2014 at 2:01:40 AM

Latest Report: Nov 26, 2014 at 12:58 AM


Visibility: N/A

Pressure: 30.23 "Hg

Humidity: 100%

Dew point: 28 °F

Location of AmbergLocation

Historic Weather in Amberg — Graph

°F

Amberg temperature yesterday

Maximum temperature yesterday: 43 °F (at 12:58 AM)
Minimum temperature yesterday: 30 °F (at 11:58 PM)
Average temperature yesterday: 40 °F

Past Weeks' High & Low Weather Summary

 TemperatureHumidityPressure
High57 °F (Nov 11, 2:58 PM)100% (Nov 10, 11:04 PM)30.37 "Hg (Nov 10, 11:04 PM)
Low28 °F (Nov 21, 11:58 PM)67% (Nov 11, 2:58 PM)29.50 "Hg (Nov 16, 1:58 AM)
Average41 °F96%30.00 "Hg
* Reported Nov 10 11:04 PM — Nov 25 11:58 PM, Amberg, Weather by CustomWeather, © 2014

Note: Actual official high and low records may vary slightly from our data, if they occured in-between our weather recording intervals... More about our weather records

Advertising

Amberg weather history for previous 24 hours

 ConditionsComfort  
Time TempWeatherWind HumidityBarometerVisibility
11:58 PM
Nov 25
30 °FClear.No wind93%30.24 "HgN/A
10:58 PM32 °FClear.No wind93%30.25 "HgN/A
9:58 PM36 °FPassing clouds.3 mph87%30.25 "HgN/A
8:58 PM37 °FOvercast.6 mph81%30.27 "HgN/A
7:58 PM37 °FOvercast.7 mph81%30.27 "HgN/A
6:58 PM36 °FMostly cloudy.5 mph87%30.27 "HgN/A
5:58 PM37 °FClear.3 mph81%30.27 "HgN/A
4:58 PM39 °FClear.7 mph75%30.26 "HgN/A
3:58 PM41 °FSunny.5 mph76%30.27 "HgN/A
2:58 PM43 °FPartly sunny.5 mph81%30.26 "HgN/A
1:58 PM43 °FOvercast.6 mph81%30.27 "HgN/A
12:58 PM43 °FOvercast.5 mph87%30.29 "HgN/A
11:58 AM43 °FOvercast.6 mph87%30.30 "HgN/A
10:58 AM43 °FOvercast.7 mph87%30.32 "HgN/A
9:58 AM41 °FOvercast.5 mph100%30.32 "HgN/A
8:58 AM41 °FLow clouds.3 mph100%30.33 "HgN/A
7:58 AM41 °FLow clouds.2 mph100%30.33 "HgN/A
6:58 AM41 °FLow clouds.5 mph100%30.34 "HgN/A
5:58 AM41 °FLow clouds.3 mph100%30.34 "HgN/A
4:58 AM41 °FFog.3 mph100%30.33 "Hg6 mi
3:58 AM41 °FFog.2 mph100%30.33 "Hg6 mi
2:58 AM41 °FFog.1 mph100%30.34 "Hg6 mi
Weather by CustomWeather, © 2014

See weather overviewHow to use our weather pages